Location: Unspecified
(0.0000°N, 0.0000°E)
Time: 11:19:20
(UTC+00:00)

Envisat - Visible Passes

Search period start: 10 December 2019 00:00
Search period end: 20 December 2019 00:00
Orbit: 764 x 766 km, 98.1° (Epoch: 10 December)

Date Brightness Start Highest point End Pass type
(mag) Time Alt. Az. Time Alt. Az. Time Alt. Az.
10 Dec 5.1 19:05:26 10° SSW 19:09:46 29° WSW 19:14:06 10° NW visible
11 Dec 3.1 18:28:01 10° S 18:33:06 83° WSW 18:38:11 10° NNW visible
12 Dec 6.3 05:22:48 10° ENE 05:25:21 14° ESE 05:27:55 10° SE visible
12 Dec 6.1 19:32:40 10° SW 19:35:10 14° WSW 19:37:39 10° WNW visible
13 Dec 4.5 18:53:49 10° S 18:58:31 39° WSW 19:03:12 10° NW visible
14 Dec 3.0 18:16:47 10° SSE 18:21:51 72° ENE 18:26:54 10° N visible
15 Dec 5.8 19:20:25 10° SSW 19:23:55 19° WSW 19:27:26 10° WNW visible
16 Dec 3.9 18:42:20 10° S 18:47:17 53° WSW 18:52:12 10° NNW visible
18 Dec 5.3 19:08:32 10° SSW 19:12:41 26° WSW 19:16:49 10° NW visible
19 Dec 3.3 18:30:57 10° S 18:36:01 74° WSW 18:41:05 10° NNW visible
